| time (UTC) | temp F | wind direction | speed MPH | gust MPH | rain 1hr in | rain 24hr in | rain mn in | humidity % | barometer mb |
| 20260906001956 | 60 | 331 | 5.0 | 11.0 | 0.00 | 0.00 | 0.00 | 80 | 1023.0 |
| 20260906000955 | 60 | 331 | 5.0 | 11.0 | 0.00 | 0.00 | 0.00 | 80 | 1023.0 |
| 20260905235955 | 60 | 331 | 5.0 | 11.0 | 0.00 | 0.00 | 0.00 | 80 | 1023.0 |
| 20260905234954 | 60 | 331 | 5.0 | 11.0 | 0.00 | 0.00 | 0.00 | 80 | 1023.0 |
| 20260905233954 | 60 | 331 | 5.0 | 11.0 | 0.00 | 0.00 | 0.00 | 80 | 1022.0 |
| 20260905232953 | 60 | 331 | 5.0 | 11.0 | 0.00 | 0.00 | 0.00 | 80 | 1022.0 |
| 20260905231953 | 60 | 331 | 5.0 | 11.0 | 0.00 | 0.00 | 0.00 | 81 | 1022.0 |
| 20260905230952 | 60 | 331 | 5.0 | 11.0 | 0.00 | 0.00 | 0.00 | 81 | 1022.0 |
| 20260905225952 | 60 | 331 | 5.0 | 11.0 | 0.00 | 0.00 | 0.00 | 81 | 1022.0 |
| 20260905224951 | 60 | 331 | 5.0 | 11.0 | 0.00 | 0.00 | 0.00 | 81 | 1022.0 |
| 20260905223951 | 60 | 331 | 5.0 | 11.0 | 0.00 | 0.00 | 0.00 | 81 | 1022.0 |
| 20260905222950 | 60 | 331 | 5.0 | 11.0 | 0.00 | 0.00 | 0.00 | 81 | 1022.0 |
| 20260905221950 | 61 | 331 | 5.0 | 11.0 | 0.00 | 0.00 | 0.00 | 80 | 1022.0 |
| 20260905220948 | 61 | 331 | 5.0 | 11.0 | 0.00 | 0.00 | 0.00 | 80 | 1022.0 |
| 20260905215947 | 61 | 331 | 5.0 | 11.0 | 0.00 | 0.00 | 0.00 | 80 | 1022.0 |
| 20260905214947 | 61 | 331 | 5.0 | 11.0 | 0.00 | 0.00 | 0.00 | 80 | 1022.0 |
| 20260905213947 | 61 | 331 | 5.0 | 11.0 | 0.00 | 0.00 | 0.00 | 80 | 1022.0 |
| 20260905212946 | 61 | 331 | 5.0 | 11.0 | 0.00 | 0.00 | 0.00 | 80 | 1021.0 |
| 20260905211946 | 61 | 331 | 5.0 | 11.0 | 0.00 | 0.00 | 0.00 | 79 | 1021.0 |
| 20260905210945 | 61 | 331 | 5.0 | 11.0 | 0.00 | 0.00 | 0.00 | 79 | 1021.0 |
| 20260905205945 | 62 | 331 | 5.0 | 11.0 | 0.00 | 0.00 | 0.00 | 78 | 1021.0 |
| 20260905204944 | 62 | 331 | 5.0 | 11.0 | 0.00 | 0.00 | 0.00 | 78 | 1021.0 |
| 20260905203944 | 62 | 331 | 5.0 | 11.0 | 0.00 | 0.00 | 0.00 | 78 | 1021.0 |
| 20260905202944 | 62 | 331 | 5.0 | 11.0 | 0.00 | 0.00 | 0.00 | 77 | 1021.0 |
| 20260905201943 | 63 | 331 | 5.0 | 11.0 | 0.00 | 0.00 | 0.00 | 76 | 1021.0 |
| 20260905200943 | 63 | 331 | 5.0 | 11.0 | 0.00 | 0.00 | 0.00 | 76 | 1021.0 |
| 20260905195942 | 63 | 331 | 5.0 | 11.0 | 0.00 | 0.00 | 0.00 | 76 | 1021.0 |
| 20260905194942 | 63 | 331 | 5.0 | 11.0 | 0.00 | 0.00 | 0.00 | 76 | 1021.0 |
| 20260905193941 | 63 | 331 | 5.0 | 11.0 | 0.00 | 0.00 | 0.00 | 76 | 1021.0 |
| 20260905192941 | 63 | 331 | 5.0 | 11.0 | 0.00 | 0.00 | 0.00 | 77 | 1020.0 |
| 20260905191941 | 63 | 331 | 5.0 | 11.0 | 0.00 | 0.00 | 0.00 | 77 | 1020.0 |
| 20260905190940 | 63 | 331 | 5.0 | 11.0 | 0.00 | 0.00 | 0.00 | 76 | 1020.0 |
| 20260905185940 | 64 | 331 | 5.0 | 11.0 | 0.00 | 0.00 | 0.00 | 75 | 1020.0 |
| 20260905184939 | 64 | 331 | 6.0 | 11.0 | 0.00 | 0.00 | 0.00 | 75 | 1020.0 |
| 20260905183939 | 71 | 354 | 8.0 | 21.0 | 0.00 | 0.00 | 0.00 | 50 | 1020.0 |
| 20260905182938 | 71 | 354 | 8.0 | 21.0 | 0.00 | 0.00 | 0.00 | 50 | 1019.0 |
| 20260905181938 | 71 | 354 | 8.0 | 21.0 | 0.00 | 0.00 | 0.00 | 50 | 1019.0 |
| 20260905180938 | 71 | 354 | 8.0 | 21.0 | 0.08 | 0.00 | 0.00 | 50 | 1019.0 |
| 20260905175937 | 71 | 354 | 8.0 | 21.0 | 0.06 | 0.00 | 0.00 | 50 | 1019.0 |
| 20260905174937 | 71 | 354 | 8.0 | 21.0 | 0.00 | 0.00 | 0.00 | 50 | 1019.0 |
| 20260905173936 | 75 | 331 | 18.0 | 24.0 | 0.00 | 0.00 | 0.00 | 41 | 1019.0 |
| 20260905172936 | 75 | 331 | 18.0 | 24.0 | 0.00 | 0.00 | 0.00 | 41 | 1019.0 |
| 20260905171935 | 75 | 331 | 18.0 | 24.0 | 0.00 | 0.00 | 0.00 | 41 | 1019.0 |
| 20260905170935 | 75 | 331 | 18.0 | 24.0 | 0.00 | 0.00 | 0.00 | 41 | 1019.0 |
| 20260905165934 | 75 | 331 | 18.0 | 24.0 | 0.00 | 0.00 | 0.00 | 41 | 1019.0 |
| 20260905164934 | 75 | 331 | 18.0 | 24.0 | 0.00 | 0.00 | 0.00 | 41 | 1019.0 |
| 20260905163933 | 75 | 331 | 18.0 | 24.0 | 0.00 | 0.00 | 0.00 | 41 | 1019.0 |
| 20260905162933 | 75 | 331 | 18.0 | 24.0 | 0.00 | 0.00 | 0.00 | 41 | 1019.0 |
| 20260905161933 | 76 | 331 | 18.0 | 24.0 | 0.00 | 0.00 | 0.00 | 40 | 1019.0 |
| 20260905160932 | 76 | 331 | 18.0 | 24.0 | 0.00 | 0.00 | 0.00 | 40 | 1019.0 |
| 20260905155932 | 77 | 331 | 18.0 | 24.0 | 0.00 | 0.00 | 0.00 | 39 | 1019.0 |
| 20260905154931 | 78 | 331 | 18.0 | 24.0 | 0.00 | 0.00 | 0.00 | 38 | 1019.0 |
| 20260905153931 | 79 | 331 | 18.0 | 24.0 | 0.00 | 0.00 | 0.00 | 37 | 1019.0 |
| 20260905152930 | 79 | 331 | 18.0 | 24.0 | 0.00 | 0.00 | 0.00 | 37 | 1019.0 |
| 20260905151930 | 79 | 331 | 18.0 | 24.0 | 0.00 | 0.00 | 0.00 | 37 | 1019.0 |
| 20260905150929 | 80 | 331 | 18.0 | 24.0 | 0.00 | 0.00 | 0.00 | 37 | 1019.0 |
| 20260905145929 | 81 | 331 | 18.0 | 24.0 | 0.00 | 0.00 | 0.00 | 37 | 1019.0 |
| 20260905144928 | 82 | 331 | 18.0 | 24.0 | 0.00 | 0.00 | 0.00 | 36 | 1019.0 |
| 20260905143927 | 82 | 331 | 18.0 | 24.0 | 0.00 | 0.00 | 0.00 | 36 | 1019.0 |
| 20260905142927 | 82 | 331 | 18.0 | 24.0 | 0.00 | 0.00 | 0.00 | 36 | 1018.0 |
| 20260905141927 | 83 | 331 | 18.0 | 24.0 | 0.00 | 0.00 | 0.00 | 35 | 1018.0 |
| 20260905140926 | 84 | 331 | 18.0 | 24.0 | 0.00 | 0.00 | 0.00 | 34 | 1018.0 |
| 20260905135926 | 84 | 331 | 18.0 | 24.0 | 0.00 | 0.00 | 0.00 | 34 | 1018.0 |
| 20260905134925 | 85 | 331 | 18.0 | 24.0 | 0.01 | 0.00 | 0.00 | 34 | 1018.0 |
| 20260905133925 | 88 | 332 | 10.0 | 13.0 | 0.00 | 0.00 | 0.00 | 39 | 1018.0 |
| 20260905132924 | 88 | 332 | 10.0 | 13.0 | 0.00 | 0.00 | 0.00 | 39 | 1018.0 |
| 20260905131924 | 88 | 332 | 10.0 | 13.0 | 0.00 | 0.00 | 0.00 | 39 | 1018.0 |
| 20260905130923 | 88 | 332 | 10.0 | 13.0 | 0.00 | 0.00 | 0.00 | 39 | 1018.0 |
| 20260905125923 | 88 | 332 | 10.0 | 13.0 | 0.00 | 0.00 | 0.00 | 39 | 1018.0 |
| 20260905124923 | 88 | 332 | 10.0 | 13.0 | 0.00 | 0.00 | 0.00 | 39 | 1018.0 |
| 20260905123922 | 88 | 332 | 10.0 | 13.0 | 0.00 | 0.00 | 0.00 | 39 | 1018.0 |
| 20260905122922 | 88 | 332 | 10.0 | 13.0 | 0.00 | 0.00 | 0.00 | 39 | 1017.0 |
| 20260905121921 | 88 | 332 | 10.0 | 13.0 | 0.00 | 0.00 | 0.00 | 39 | 1017.0 |
| 20260905120921 | 88 | 332 | 10.0 | 13.0 | 0.00 | 0.00 | 0.00 | 39 | 1017.0 |
| 20260905115920 | 88 | 332 | 10.0 | 13.0 | 0.00 | 0.00 | 0.00 | 39 | 1017.0 |
| 20260905114920 | 88 | 332 | 10.0 | 13.0 | 0.00 | 0.00 | 0.00 | 39 | 1017.0 |
| 20260905113920 | 88 | 332 | 10.0 | 13.0 | 0.00 | 0.00 | 0.00 | 39 | 1017.0 |
| 20260905112919 | 88 | 332 | 10.0 | 13.0 | 0.00 | 0.00 | 0.00 | 39 | 1016.0 |
| 20260905111919 | 88 | 332 | 10.0 | 13.0 | 0.00 | 0.00 | 0.00 | 39 | 1016.0 |
| 20260905110917 | 88 | 332 | 10.0 | 13.0 | 0.00 | 0.00 | 0.00 | 39 | 1016.0 |
| 20260905105916 | 89 | 332 | 10.0 | 13.0 | 0.00 | 0.00 | 0.00 | 38 | 1016.0 |
| 20260905104916 | 90 | 332 | 10.0 | 13.0 | 0.00 | 0.00 | 0.00 | 37 | 1016.0 |
| 20260905103916 | 90 | 332 | 10.0 | 13.0 | 0.00 | 0.00 | 0.00 | 37 | 1016.0 |
| 20260905102915 | 90 | 332 | 10.0 | 13.0 | 0.00 | 0.00 | 0.00 | 37 | 1016.0 |
| 20260905101914 | 90 | 332 | 10.0 | 13.0 | 0.00 | 0.00 | 0.00 | 37 | 1016.0 |
| 20260905100913 | 90 | 332 | 10.0 | 13.0 | 0.00 | 0.00 | 0.00 | 37 | 1016.0 |
| 20260905095913 | 90 | 332 | 10.0 | 13.0 | 0.00 | 0.00 | 0.00 | 37 | 1016.0 |
| 20260905094912 | 90 | 332 | 10.0 | 13.0 | 0.00 | 0.00 | 0.00 | 37 | 1016.0 |
| 20260905093912 | 90 | 332 | 10.0 | 13.0 | 0.00 | 0.00 | 0.00 | 37 | 1016.0 |
| 20260905092911 | 90 | 332 | 10.0 | 13.0 | 0.00 | 0.00 | 0.00 | 37 | 1016.0 |
| 20260905091911 | 90 | 332 | 10.0 | 13.0 | 0.00 | 0.00 | 0.00 | 37 | 1016.0 |
| 20260905090910 | 90 | 332 | 10.0 | 13.0 | 0.00 | 0.00 | 0.00 | 37 | 1016.0 |
| 20260905085910 | 90 | 332 | 10.0 | 13.0 | 0.00 | 0.00 | 0.00 | 37 | 1016.0 |
| 20260905084909 | 90 | 332 | 10.0 | 13.0 | 0.00 | 0.00 | 0.00 | 37 | 1016.0 |
| 20260905083909 | 85 | 306 | 8.0 | 11.0 | 0.00 | 0.00 | 0.00 | 43 | 1016.0 |
| 20260905082908 | 85 | 306 | 8.0 | 11.0 | 0.00 | 0.00 | 0.00 | 44 | 1016.0 |
| 20260905081907 | 85 | 306 | 8.0 | 11.0 | 0.00 | 0.00 | 0.00 | 44 | 1016.0 |
| 20260905080907 | 85 | 306 | 8.0 | 11.0 | 0.00 | 0.00 | 0.00 | 45 | 1016.0 |
| 20260905075907 | 85 | 306 | 8.0 | 11.0 | 0.00 | 0.00 | 0.00 | 45 | 1016.0 |
| 20260905074906 | 85 | 306 | 9.0 | 12.0 | 0.00 | 0.00 | 0.00 | 45 | 1015.0 |
| 20260905073906 | 80 | 273 | 10.0 | 14.0 | 0.00 | 0.00 | 0.00 | 47 | 1015.0 |
| 20260905072905 | 80 | 273 | 10.0 | 14.0 | 0.00 | 0.00 | 0.00 | 47 | 1015.0 |
| 20260905071905 | 80 | 273 | 10.0 | 14.0 | 0.00 | 0.00 | 0.00 | 47 | 1015.0 |
| 20260905070904 | 80 | 273 | 10.0 | 14.0 | 0.00 | 0.00 | 0.00 | 48 | 1015.0 |
| 20260905065904 | 80 | 273 | 10.0 | 14.0 | 0.00 | 0.00 | 0.00 | 48 | 1015.0 |
| 20260905064903 | 72 | 241 | 8.0 | 13.0 | 0.00 | 0.00 | 0.00 | 54 | 1015.0 |
| 20260905063903 | 72 | 241 | 8.0 | 13.0 | 0.00 | 0.00 | 0.00 | 54 | 1015.0 |
| 20260905062903 | 72 | 241 | 8.0 | 13.0 | 0.00 | 0.00 | 0.00 | 54 | 1015.0 |
| 20260905061902 | 72 | 241 | 8.0 | 13.0 | 0.00 | 0.00 | 0.00 | 55 | 1015.0 |
| 20260905060902 | 72 | 241 | 8.0 | 13.0 | 0.00 | 0.00 | 0.00 | 56 | 1015.0 |
| 20260905055901 | 72 | 241 | 8.0 | 13.0 | 0.00 | 0.00 | 0.00 | 57 | 1015.0 |
| 20260905054901 | 71 | 241 | 8.0 | 13.0 | 0.00 | 0.00 | 0.00 | 58 | 1015.0 |
| 20260905053901 | 64 | 305 | 13.0 | 17.0 | 0.00 | 0.00 | 0.00 | 62 | 1015.0 |
| 20260905052900 | 65 | 305 | 13.0 | 17.0 | 0.00 | 0.00 | 0.00 | 62 | 1015.0 |
| 20260905051900 | 65 | 305 | 13.0 | 17.0 | 0.00 | 0.00 | 0.00 | 63 | 1015.0 |
| 20260905050859 | 65 | 305 | 13.0 | 17.0 | 0.00 | 0.00 | 0.00 | 64 | 1015.0 |
| 20260905045859 | 65 | 305 | 13.0 | 17.0 | 0.00 | 0.00 | 0.00 | 65 | 1015.0 |
| 20260905044858 | 65 | 305 | 13.0 | 17.0 | 0.00 | 0.00 | 0.00 | 66 | 1015.0 |
| 20260905043858 | 65 | 305 | 13.0 | 17.0 | 0.00 | 0.00 | 0.00 | 66 | 1015.0 |
| 20260905042857 | 65 | 305 | 13.0 | 17.0 | 0.00 | 0.00 | 0.00 | 66 | 1015.0 |
| 20260905041857 | 65 | 305 | 13.0 | 17.0 | 0.00 | 0.00 | 0.00 | 66 | 1015.0 |
| 20260905040857 | 65 | 305 | 13.0 | 17.0 | 0.00 | 0.00 | 0.00 | 66 | 1015.0 |
| 20260905035856 | 66 | 305 | 13.0 | 17.0 | 0.00 | 0.00 | 0.00 | 65 | 1015.0 |
| 20260905034853 | 66 | 305 | 13.0 | 17.0 | 0.00 | 0.00 | 0.00 | 64 | 1015.0 |
| 20260905033853 | 66 | 305 | 13.0 | 17.0 | 0.00 | 0.00 | 0.00 | 64 | 1015.0 |
| 20260905032852 | 66 | 305 | 13.0 | 17.0 | 0.00 | 0.00 | 0.00 | 64 | 1015.0 |
| 20260905031851 | 66 | 305 | 13.0 | 17.0 | 0.00 | 0.00 | 0.00 | 64 | 1015.0 |
| 20260905030851 | 66 | 305 | 13.0 | 17.0 | 0.00 | 0.00 | 0.00 | 64 | 1015.0 |
| 20260905025851 | 66 | 305 | 13.0 | 17.0 | 0.00 | 0.00 | 0.00 | 64 | 1015.0 |
| 20260905024850 | 66 | 305 | 13.0 | 17.0 | 0.00 | 0.00 | 0.00 | 64 | 1015.0 |
| 20260905023850 | 67 | 305 | 13.0 | 17.0 | 0.00 | 0.00 | 0.00 | 63 | 1015.0 |
| 20260905022849 | 67 | 305 | 13.0 | 17.0 | 0.00 | 0.00 | 0.00 | 63 | 1015.0 |
| 20260905021848 | 67 | 305 | 13.0 | 17.0 | 0.00 | 0.00 | 0.00 | 63 | 1015.0 |
| 20260905020848 | 67 | 305 | 13.0 | 17.0 | 0.00 | 0.00 | 0.00 | 62 | 1015.0 |
| 20260905015848 | 68 | 305 | 13.0 | 17.0 | 0.00 | 0.00 | 0.00 | 61 | 1015.0 |
| 20260905014847 | 68 | 305 | 13.0 | 17.0 | 0.00 | 0.00 | 0.00 | 61 | 1015.0 |
| 20260905013847 | 69 | 305 | 13.0 | 17.0 | 0.00 | 0.00 | 0.00 | 60 | 1015.0 |
| 20260905012846 | 69 | 305 | 13.0 | 17.0 | 0.00 | 0.00 | 0.00 | 59 | 1015.0 |
| 20260905011846 | 69 | 305 | 13.0 | 17.0 | 0.00 | 0.00 | 0.00 | 58 | 1015.0 |
| 20260905010846 | 70 | 305 | 13.0 | 17.0 | 0.00 | 0.00 | 0.00 | 57 | 1015.0 |
| 20260905005845 | 70 | 305 | 13.0 | 17.0 | 0.00 | 0.00 | 0.00 | 57 | 1015.0 |
| 20260905004844 | 70 | 305 | 13.0 | 17.0 | 0.00 | 0.00 | 0.00 | 56 | 1015.0 |
| 20260905003844 | 70 | 305 | 13.0 | 17.0 | 0.00 | 0.00 | 0.00 | 56 | 1015.0 |
| 20260905002844 | 70 | 305 | 13.0 | 17.0 | 0.00 | 0.00 | 0.00 | 56 | 1015.0 |